BEESAT-1

Last updated on Sun Apr 12 2026 00:03:15 GMT+0000 (Coordinated Universal Time)

1 35933U 09051C 26101.50230192 .00000742 00000+0 15911-3 0 9992 2 35933 98.4001 7.9976 0006565 76.8677 283.3255 14.61611431879446
UTC large
Height (km)
Speed (km/s)
/
Latitude / Longitude
Inclination (degrees)
Orbital Period (minutes)
Azimuth
Elevation
Range (km)
Doppler Factor

Next 0 passes for location: London (51.5072 / 0.1276)

Sorry there are no passes over London.
BEESAT-1